Location: Hermaringen
(48.5952°N, 10.2585°E)
Time: 10:03:44
(UTC+00:00)

Courier 1B - Pass Details

Date: 24 February 2026
Orbit: 962 x 1208 km, 28.3° (Epoch: 7 March)

Event Time Altitude Azimuth Distance (km) Brightness Sun altitude
Rises 19:11:43 0° 238° (WSW) 3,822 11.3 -23.3°
Reaches altitude 10° 19:16:06 10° 213° (SSW) 2,925 10.2 -24.0°
Maximum altitude 19:19:14 13° 186° (S) 2,724 9.7 -24.5°
Enters shadow 19:21:03 12° 171° (S) 2,826 9.7 -24.8°
Drops below altitude 10° 19:22:27 10° 160° (SSE) 3,005 - -25.0°
Sets 19:27:05 0° 136° (SE) 4,018 - -25.7°
